Regional Weather Roundup
Issued by NWS Raleigh/Durham, NC

Home | Current Version | Previous Version | Text Only | Print | Product List | Glossary On
Versions: 1 2 3 4 5 6 7 8 9 10 11 12 13 14 15 16 17 18 19 20 21 22 23 24 25 26 27 28 29 30 31 32 33 34 35 36 37 38 39 40 41 42 43 44 45 46 47 48 49 50
000
ASUS42 KRAH 301610
RWRRAH
NORTH CAROLINA WEATHER ROUNDUP
NATIONAL WEATHER SERVICE RALEIGH NC
1200 PM EDT SUN APR 30 2017

NOTE: "FAIR" INDICATES FEW OR NO CLOUDS BELOW 12,000 FEET WITH NO
SIGNIFICANT WEATHER AND/OR OBSTRUCTIONS TO VISIBILITY.

NCZ001-053-055-056-065-067-301700-
WESTERN NORTH CAROLINA

CITY           SKY/WX    TMP DP  RH WIND       PRES   REMARKS
ASHEVILLE      NOT AVBL
JEFFERSON      PTSUNNY   67  56  68 SE7       30.25R
MORGANTON      PTSUNNY   76  62  60 SW8       30.24R
HICKORY        PTSUNNY   74  63  68 S12G21    30.20
RUTHERFORDTON  NOT AVBL
MOUNT AIRY     MOSUNNY   75  67  75 S9        30.22R
BOONE          CLOUDY    70  55  60 W9        30.26R
$$

NCZ021-022-025-041-071-084-088-301700-
CENTRAL NORTH CAROLINA

CITY           SKY/WX    TMP DP  RH WIND       PRES   REMARKS
CHARLOTTE      NOT AVBL
GREENSBORO     PTSUNNY   78  66  66 S14       30.19R
WINSTON-SALEM  PTSUNNY   77  62  59 VRB6      30.20S
RALEIGH-DURHAM CLOUDY    80  67  64 S14       30.19F
FORT BRAGG     CLOUDY    81  67  62 S9        30.18F
FAYETTEVILLE   CLOUDY    82  67  60 S15       30.19S
BURLINGTON     PTSUNNY   81  66  60 S12G18    30.18S
LAURINBURG     PTSUNNY   80  69  69 SW12      30.20S
$$

NCZ011-015-027-028-043-044-047-080-103-301700-
NORTHEASTERN NORTH CAROLINA

CITY           SKY/WX    TMP DP  RH WIND       PRES   REMARKS
ROCKY MT-WILSO CLOUDY    80  69  69 S12       30.18F
GREENVILLE     CLOUDY    81  68  65 SW13G21   30.21S
WASHINGTON     MOSUNNY   80  68  67 SW9G17    30.20F
ELIZABETH CITY SUNNY     81  71  71 SW15      30.18
MANTEO         MOSUNNY   81  69  68 SW8       30.19F
CAPE HATTERAS  MOSUNNY   80  71  74 SW9       30.23F HAZE
$$

NCZ078-087-090-091-093-098-101-301700-
SOUTHEASTERN NORTH CAROLINA

CITY           SKY/WX    TMP DP  RH WIND       PRES   REMARKS
LUMBERTON      CLOUDY    83  69  62 S12G21    30.18F
GOLDSBORO      CLOUDY    81  71  72 S9        30.18F
KINSTON        CLOUDY    84  68  58 SW10      30.20F
KENANSVILLE    MOSUNNY   82  68  61 S3        30.20F
NEW BERN       MOSUNNY   83  68  60 SW13      30.22F
CHERRY POINT   NOT AVBL
BEAUFORT       MOSUNNY   78  74  87 SW14      30.23S
JACKSONVILLE   PTSUNNY   81  72  74 S13G21    30.21S
WILMINGTON     MOSUNNY   83  70  64 S16G23    30.22S
$$




USA.gov is the U.S. government's official web portal to all federal, state and local government web resources and services.